Location: Harwich
(41.7160°N, 69.9939°W)
Time: 19:41:11
(UTC+01:00)

A-11 Canister half - All Passes

Search period start: 07 February 2023 00:00
Search period end: 17 February 2023 00:00
Orbit: 1525 x 1683 km, 47.3° (Epoch: 06 February)

Date Brightness Start Highest point End Pass type
(mag) Time Alt. Az. Time Alt. Az. Time Alt. Az.
07 Feb - 08:19:34 10° S 08:26:46 26° SE 08:33:54 10° ENE visible
07 Feb - 10:21:21 10° SW 10:30:37 75° SSE 10:39:56 10° ENE visible
07 Feb - 12:26:42 10° W 12:35:57 65° N 12:45:22 10° ENE daylight
07 Feb - 14:32:30 10° WNW 14:41:51 71° NNE 14:51:28 10° E daylight
07 Feb - 16:37:41 10° WNW 16:46:54 60° SW 16:56:23 10° SE daylight
07 Feb - 18:44:43 10° W 18:50:30 18° SW 18:56:24 10° SSW daylight
08 Feb - 07:58:10 10° S 08:05:08 24° SE 08:12:03 10° E visible
08 Feb - 09:59:41 10° SW 10:08:57 73° SSE 10:18:14 10° ENE visible
08 Feb - 12:04:57 10° W 12:14:12 66° N 12:23:37 10° ENE visible
08 Feb - 14:10:47 10° WNW 14:20:08 70° NNE 14:29:42 10° E daylight
08 Feb - 16:15:59 10° WNW 16:25:13 63° SW 16:34:44 10° SE daylight
08 Feb - 18:22:46 10° W 18:28:53 19° SW 18:35:07 10° SSW daylight
09 Feb - 07:36:48 10° S 07:43:32 23° SE 07:50:12 10° E visible
09 Feb - 09:38:02 10° SW 09:47:16 70° SE 09:56:31 10° ENE visible
09 Feb - 11:43:13 10° W 11:52:28 67° NNW 12:01:52 10° ENE visible
09 Feb - 13:49:04 10° WNW 13:58:24 69° NNE 14:07:56 10° E daylight
09 Feb - 15:54:16 10° WNW 16:03:32 65° SW 16:13:04 10° SE daylight
09 Feb - 18:00:51 10° W 18:07:15 20° SW 18:13:47 10° S daylight
10 Feb - 07:15:27 10° S 07:21:55 21° SE 07:28:20 10° E visible
10 Feb - 09:16:23 10° SW 09:25:36 67° SE 09:34:48 10° ENE visible
10 Feb - 11:21:28 10° W 11:30:45 68° NNW 11:40:07 10° ENE visible
10 Feb - 13:27:21 10° WNW 13:36:40 68° NNE 13:46:10 10° E daylight
10 Feb - 15:32:34 10° WNW 15:41:51 68° SW 15:51:23 10° SE daylight
10 Feb - 17:38:58 10° W 17:45:38 22° SW 17:52:26 10° S daylight
11 Feb - 06:54:08 10° SSE 07:00:18 20° SE 07:06:25 10° E visible
11 Feb - 08:54:44 10° SW 09:03:55 65° SE 09:13:06 10° ENE visible
11 Feb - 10:59:44 10° W 11:09:01 69° NNW 11:18:23 10° ENE visible
11 Feb - 13:05:38 10° WNW 13:14:55 67° NNE 13:24:23 10° E daylight
11 Feb - 15:10:52 10° WNW 15:20:10 70° SW 15:29:43 10° SE daylight
11 Feb - 17:17:06 10° W 17:24:01 23° SW 17:31:03 10° S daylight
12 Feb - 06:32:51 10° SSE 06:38:42 18° SE 06:44:29 10° E visible
12 Feb - 08:33:06 10° SW 08:42:16 62° SE 08:51:23 10° ENE visible
12 Feb - 10:38:00 10° W 10:47:17 70° NNW 10:56:39 10° ENE visible
12 Feb - 12:43:55 10° WNW 12:53:11 66° N 13:02:37 10° E daylight
12 Feb - 14:49:10 10° WNW 14:58:29 73° SSW 15:08:02 10° SE daylight
12 Feb - 16:55:16 10° W 17:02:23 25° SW 17:09:39 10° S daylight
13 Feb - 06:11:35 10° SSE 06:17:05 17° SE 06:22:32 10° E visible
13 Feb - 08:11:28 10° SW 08:20:36 60° SE 08:29:40 10° ENE visible
13 Feb - 10:16:15 10° W 10:25:34 71° NNW 10:34:55 10° ENE visible
13 Feb - 12:22:11 10° WNW 12:31:27 65° N 12:40:51 10° E daylight
13 Feb - 14:27:28 10° WNW 14:36:48 75° SSW 14:46:20 10° SE daylight
13 Feb - 16:33:26 10° WNW 16:40:45 26° SW 16:48:14 10° S daylight
14 Feb - 05:50:24 10° SSE 05:55:29 16° SE 06:00:31 10° E night (unlit)
14 Feb - 07:49:50 10° SW 07:58:56 57° SE 08:07:57 10° ENE visible
14 Feb - 09:54:31 10° WSW 10:03:51 72° NNW 10:13:12 10° ENE visible
14 Feb - 12:00:28 10° WNW 12:09:43 65° N 12:19:05 10° E visible
14 Feb - 14:05:47 10° WNW 14:15:06 78° SSW 14:24:39 10° SE daylight
14 Feb - 16:11:37 10° WNW 16:19:07 28° SW 16:26:47 10° S daylight
15 Feb - 05:29:16 10° SSE 05:33:53 15° SE 05:38:27 10° E night (unlit)
15 Feb - 07:28:13 10° SW 07:37:17 55° SE 07:46:14 10° ENE visible
15 Feb - 09:32:46 10° WSW 09:42:07 74° NNW 09:51:28 10° ENE visible
15 Feb - 11:38:44 10° WNW 11:47:59 64° N 11:57:19 10° E visible
15 Feb - 13:44:04 10° WNW 13:53:25 80° SSW 14:02:57 10° SE daylight
15 Feb - 15:49:50 10° WNW 15:57:29 29° SW 16:05:19 10° S daylight
16 Feb - 05:08:12 10° SSE 05:12:17 14° ESE 05:16:19 10° E night (unlit)
16 Feb - 07:06:36 10° SSW 07:15:37 52° SE 07:24:31 10° ENE visible
16 Feb - 09:11:02 10° WSW 09:20:24 75° NNW 09:29:45 10° ENE visible
16 Feb - 11:17:00 10° WNW 11:26:15 63° N 11:35:34 10° E visible
16 Feb - 13:22:23 10° WNW 13:31:43 83° SSW 13:41:14 10° ESE daylight
16 Feb - 15:28:02 10° WNW 15:35:51 31° SW 15:43:51 10° S daylight
